www.pogodaiklimat.ru
Время
и дата
17:53 29.12
18:53 29.12
19:53 29.12
20:53 29.12
21:53 29.12
22:53 29.12
23:53 29.12
00:53 30.12
01:53 30.12
02:53 30.12
03:53 30.12
04:53 30.12
05:53 30.12
06:53 30.12
07:53 30.12
08:53 30.12
09:53 30.12
10:53 30.12
11:53 30.12
12:53 30.12
13:53 30.12
14:53 30.12
15:53 30.12
16:53 30.12
17:53 30.12
18:53 30.12
19:53 30.12
20:53 30.12
21:53 30.12
22:53 30.12
23:53 30.12
00:53 31.12
01:53 31.12
02:53 31.12
03:53 31.12
04:53 31.12
05:53 31.12
06:53 31.12
07:53 31.12
08:53 31.12
09:53 31.12
10:53 31.12
11:53 31.12
12:53 31.12
13:53 31.12
14:53 31.12
15:53 31.12
16:53 31.12
Ветер
(напр.,м/с)
Видим. Явления Облачность Т
(С)
Тd
(С)
f
(%)
Тe
(С)
Тes
(С)
Комфортность P
(гПа)
Po
(гПа)
Тmin
(С)
Tmax
(С)
R
(мм)
R24
(мм)
S
(см)
З 3 16 км ясно +16.1 -5.0 23 +15 +15 1008.9 910.4 +16.1 +20.6
штиль 0 16 км ясно +13.3 -5.6 26 +13 +13 1009.9 911.3
З 1 16 км ясно +11.1 -6.1 29 +11 +11 1010.5 911.6
З 1 16 км ясно +11.1 -6.1 29 +10 +10 1010.3 911.6
ЮЗ 1 16 км ясно +9.4 -6.1 33 +8 +8 1010.4 911.6
штиль 0 16 км ясно +6.1 -7.2 38 +6 +6 1010.9 912.3
ЮЗ 2 16 км ясно +8.3 -6.1 35 +6 +6 1011.0 912.6 +6.1 +16.1
ЮЗ 1 16 км ясно +6.7 -6.1 40 +4 +4 1010.9 912.3
ЮЗ 1 16 км 2/0 2850 м
[Ac]
+6.1 -6.1 41 +4 +4 1011.0 912.6
ЮЗ 1 16 км ясно +5.0 -6.1 44 +3 +3 1011.2 912.6
СЗ 1 16 км ясно +4.4 -6.1 46 +2 +2 1011.2 912.6
СЗ 1 16 км ясно +2.8 -7.2 48 -1 -1 1012.0 912.9
З 1 16 км ясно +4.4 -6.1 46 +2 +2 1012.2 913.2 +2.2 +8.3
СЗ 1 16 км ясно +2.2 -6.7 52 0 0 1013.2 913.5
З 1 16 км ясно +3.3 -6.1 50 0 0 1013.6 913.8
З 1 16 км ясно +7.2 -5.0 42 +5 +5 1013.7 914.4
З 2 16 км ясно +13.9 -3.9 29 +13 +13 1013.9 914.7
З 2 16 км ясно +17.8 -3.3 24 +17 +19 1013.6 914.7
З 3 16 км ясно +18.3 -2.8 24 +18 +20 1013.3 914.4 +1.7 +18.9
ЮЗ 2 16 км ясно +18.9 -3.3 22 +19 +22 1011.5 912.9
З 2 16 км ясно +18.9 -3.3 22 +19 +22 1010.4 912.0
ЮЗ 3 16 км ясно +18.9 -3.9 21 +18 +20 1009.7 911.3
ЮЗ 2 16 км ясно +19.4 -2.8 22 +19 +22 1009.6 911.0
ЮЗ 3 16 км ясно +18.9 -1.7 25 +18 +19 1009.6 911.0
ЮЗ 2 16 км ясно +16.1 -2.2 28 +16 +16 1009.9 911.0 +16.1 +20.6
ЮЗ 1 16 км 2/0 3600 м
[Ac]
+15.0 -2.8 29 +15 +15 1010.4 911.3
Ю 1 16 км 8/0 3000 м
[Ac]
+13.9 -2.8 31 +13 +13 1010.4 911.3
Ю 1 16 км 10/0 3300 м
[Ac]
+12.8 -2.8 34 +12 +12 1009.9 911.0
штиль 0 16 км 5/0 3300 м
[Ac]
+10.0 -3.9 37 +10 +10 1009.7 911.0
ЮЗ 1 16 км ясно +11.1 -2.8 38 +10 +10 1009.8 911.6
З 1 16 км 2/0 2850 м
[Ac]
+8.3 -3.3 44 +6 +6 1009.5 911.0 +7.2 +16.1
З 2 16 км 2/0 3000 м
[Ac]
+9.4 -3.3 41 +7 +7 1008.8 910.7
З 1 16 км ясно +9.4 -2.2 44 +8 +8 1008.3 910.4
З 1 16 км ясно +10.6 -1.7 42 +9 +9 1007.5 909.5
З 1 16 км ясно +11.7 -0.6 43 +10 +10 1007.3 909.5
З 1 16 км ясно +10.6 -0.6 46 +10 +10 1006.8 908.9
ЮЗ 1 16 км ясно +11.1 0.0 46 +10 +10 1006.8 908.9 +7.2 +12.2
штиль 0 16 км ясно +10.0 -1.7 44 +10 +10 1007.0 908.9
ЮЗ 1 16 км 8/0 3600 м
[Ac]
+10.6 -1.7 42 +10 +10 1007.3 908.9
З 1 14 км 10/2 1470 м
[Ac]
+10.6 +1.1 52 +9 +9 1008.1 909.8
штиль 0 16 км 5/2 1440 м
[Ac]
+13.9 +2.8 47 +14 +15 1008.6 910.1
ЮВ 1 16 км 2/0 3600 м
[Ac]
+12.8 +1.7 47 +12 +15 1008.0 909.8
штиль 0 14 км 2/0 3600 м
[Ac]
+13.3 +2.2 47 +13 +19 1007.3 908.9 +10.0 +13.9
В 1 16 км 2/0 3000 м
[Ac]
+16.1 +2.8 41 +16 +22 1004.5 906.8
ЮВ 2 16 км 2/0 2850 м
[Ac]
+18.9 +3.9 37 +19 +23 1002.6 905.2
СЗ 3 16 км 8/0 2250 м
[Ac]
+17.8 +5.0 43 +17 +18 1003.9 906.5
СЗ 4 16 км 10/0 2250 м
[Ac]
+15.0 +7.8 62 +13 +13 1004.9 907.1
СЗ 4 16 км 10/8 1350 м
[Ac]
+13.9 +8.3 69 +11 +11 1006.2 908.0
Местоположение метеостанции Midland International Airport: широта 31.9478 долгота -102.2086 высота над уровнем моря 875 м.
В архиве по умолчанию представлена погода в Мидленде за последние 1-2 суток. Обновление информации о фактической погоде в базе происходит ежечасно! Архивные данные за месяц целиком и за предыдущие месяцы Вы можете получить, выбрав интересующий диапазон дат из раскрывающегося списка и нажав кнопку "Ввод!".
Внимание! Архив погоды МЕТАР в базе сайта по станциям, не включенным в климатический монитор, хранится не более 60 дней. Нет смысла пытаться выбрать более раннюю дату.
*Определитесь, кто Вы:
Внимание! Время в таблицах - местное (без учета летнего времени). Для получения всемирного времени необходимо вычесть поправку, которая равна -6 ч.
Смотрите также архив погоды в соседних городах и на ближайших метеорологических станциях:
Партнеры нашего сайта:      
Пояснения к столбцам:
  • Ветер - указаны скорость ветра в м/с - средняя за 10 мин, порывы в срок и между сроками (в фигурных скобках) и направление, откуда дует ветер: С - северный,
  • СВ - северо-восточный, В - восточный, ЮВ - юго-восточный, Ю - южный, ЮЗ - юго-западный, З - западный, СЗ - северо-западный.
  • Видимость - горизонтальная дальность видимости в метрах или километрах. При видимости от 1 до 10 км при отсутствии осадков обычно наблюдается дымка, при ухудшении видимости до 1 км и менее - туман. В сухую погоду видимость может ухудшаться дымом, пылью или мглою.
  • Явления - указаны атмосферные явления, наблюдавшиеся в срок или в последний час перед сроком; фигурными скобками обозначены явления, наблюдавшиеся между сроками (за 1-3 часа до срока); квадратными скобками обозначены град или гололедные отложения с указанием их диаметра в мм.
  • Облачность - указаны через наклонную черту общая и нижняя облачность в баллах и высота нижней границы облаков в метрах; квадратными скобками обозначены формы облаков: Ci - перистые, Cs - перисто-слоистые, Cc - перисто-кучевые, Ac - высококучевые, As - высокослоистые, Sc - слоисто-кучевые, Ns - слоисто-дождевые, Cu - кучевые, Cb - кучево-дождевые. Подробнее классификацию облаков см. в Атласе облаков (PDF).
  • T - Температура воздуха - температура, измеренная на высоте 2 м над землей.
  • Td - Температура точки росы - температура, при понижении до которой содержащийся в воздухе водяной пар достигнет насыщения.
  • f - Относительная влажность воздуха - влажноcть воздуха, измеренная на высоте 2 м над землей.
  • Te - Эффективная температура - температура, которую ощущает одетый по сезону человек в тени. Характеристика душности погоды. При расчете учитывается влияние влажности воздуха и скорости ветра на теплоощущения человека.
  • Tes - Эффективная температура на солнце - температура, которую ощущает человек, с поправкой на солнечный нагрев. Характеристика знойности погоды. Зависит от высоты солнца над горизонтом, облачности и скорости ветра. Ночью, в пасмурную погоду, а также при ветре 12 м/с и более поправка равна нулю.
  • P - Атмосферное давление - приведенное к уровню моря атмосферное давление.
  • Po - Атмосферное давление - измеренное на уровне метеостанции атмосферное давление.
  • Tmin - Минимальная температура - минимум температуры воздуха на высоте 2 м над землей.
  • Tmax - Максимальная температура - максимум температуры воздуха на высоте 2 м над землей.
  • R - Количество осадков - Количество выпавших осадков за период времени, мм. При наведении курсора мыши на число - период времени, за который выпало указанное количество осадков.
  • R24 - Количество осадков - Количество выпавших осадков за 24 часа, мм.
  • S - Снежный покров - Высота снежного покрова, см. При наведении курсора мыши на число - состояние снежного покрова и степень покрытия местности в баллах.